Simultaneous Nadir Overpasses (SNOs) Predictions

Prediction of SNOs between AQUA and METOP-B Satellite Orbit:

Table of predicted SNOs for the next 14.0 days since TLE Epoch: 4/15/2023
Index Date (AQUA) Time (AQUA) Lat,Lon (AQUA) SZA (AQUA ) Date (METOP-B) Time (METOP-B) Lat,Lon (METOP-B) SZA (METOP-B ) Distance(km) Time Diff (sec)
1 04/16/2023 13:14:51 -73.88, 158.00 116.34 04/16/2023 13:13:43 -73.83, 155.68 116.32 72.03 68
2 04/16/2023 14:04:27 74.42, -35.62 64.22 04/16/2023 14:04:11 74.42, -35.52 64.22 2.93 16
3 04/16/2023 14:53:52 -74.46, 131.93 115.75 04/16/2023 14:54:52 -74.45, 131.88 115.77 2.15 60
4 04/19/2023 07:07:53 -73.71,-109.87 117.48 04/19/2023 07:06:48 -73.65,-113.01 117.46 98.57 65
5 04/19/2023 07:57:32 74.41, 56.16 63.24 04/19/2023 07:57:13 74.38, 56.12 63.22 3.18 19
6 04/19/2023 08:46:57 -74.45,-136.28 116.73 04/19/2023 08:47:53 -74.46,-136.34 116.72 2.59 56
7 04/22/2023 01:50:36 74.42, 147.89 62.31 04/22/2023 01:50:13 74.43, 147.99 62.33 3.31 23
8 04/22/2023 02:40:01 -74.46, -44.54 117.67 04/22/2023 02:40:54 -74.47, -44.59 117.66 1.77 53
9 04/24/2023 19:43:37 74.41,-120.31 61.38 04/24/2023 19:43:13 74.42,-120.29 61.40 1.35 24
10 04/24/2023 20:33:03 -74.49, 47.14 118.55 04/24/2023 20:33:54 -74.46, 47.13 118.58 3.76 51
11 04/27/2023 13:36:38 74.42, -28.56 60.51 04/27/2023 13:36:14 74.40, -28.61 60.49 2.98 24
12 04/27/2023 14:26:04 -74.50, 138.89 119.43 04/27/2023 14:26:54 -74.49, 138.95 119.45 2.32 50



Historial Predications of SNOs between AQUA and METOP-B
